Theta_e
314 315 315 315 316 316 318 318 318 320 318 319 321 317 315 317 321 317 318 318 314 330 345 348 344 344 350 353 356 352 349 355 355 354 354 347 341 342 343 344 347 347 347 346 345 344 339 333 330 329 326 322 323 327 331 331 330 329 331 337 338 337 339 338 338 338 338 338 338 338 339 339 339 340 339 340 340 339 335 336 339 340 339 339 338 337 336 335 337 338 337 337 337 337 336 336 335
314 314 314 315 316 319 320 317 320 321 318 316 316 318 317 319 320 317 317 318 317 333 351 351 351 354 353 350 351 352 348 347 347 348 347 343 342 343 342 345 346 346 347 346 345 342 339 334 331 330 326 322 324 330 332 330 328 330 335 338 338 338 338 337 338 337 338 338 338 339 339 340 341 341 341 341 340 339 338 336 336 338 338 337 337 336 336 337 338 338 338 338 338 337 336 337 337
314 315 316 318 317 319 321 318 319 320 318 314 312 316 315 316 318 315 316 318 317 321 342 354 354 354 353 357 355 354 351 345 344 344 344 343 344 345 343 344 345 346 346 345 344 342 339 334 332 330 326 321 325 332 331 329 327 330 336 337 337 337 336 336 337 338 338 338 338 339 339 339 341 341 340 340 339 339 340 337 335 336 336 337 336 335 337 338 338 337 338 338 337 336 336 337 337
314 317 319 321 319 320 325 321 323 322 318 317 313 314 315 315 315 315 316 318 318 314 334 357 357 351 354 362 355 354 351 344 345 343 344 343 343 345 344 345 346 345 346 345 343 342 339 335 333 330 325 321 326 333 330 329 327 331 336 337 337 337 336 337 336 337 339 338 338 338 338 338 338 338 337 337 338 339 339 339 337 337 337 336 335 336 338 338 338 338 338 338 337 336 336 336 335
315 318 318 321 322 321 323 320 323 319 314 317 314 315 319 319 316 317 319 318 319 319 330 355 360 352 352 355 351 355 352 345 345 343 344 344 343 345 345 345 346 345 346 345 343 342 339 337 334 330 325 322 327 332 331 329 327 331 335 337 338 337 337 336 336 338 339 338 338 339 338 338 338 337 336 336 338 339 339 339 339 338 337 337 336 336 338 338 338 338 338 338 337 336 335 333 332
315 318 318 320 320 318 320 319 322 318 314 317 315 317 319 318 317 318 320 317 323 335 341 354 357 354 354 350 349 350 347 346 346 344 345 345 343 343 345 345 345 345 346 345 344 342 339 338 333 330 326 322 328 333 332 330 329 330 331 335 336 336 336 335 337 338 338 338 338 338 337 338 338 338 338 338 339 339 339 339 338 337 336 335 335 337 338 338 338 338 338 337 335 333 332 332 332
315 319 321 321 319 318 323 324 322 320 317 317 317 318 316 317 317 317 319 318 324 344 354 355 351 357 358 350 352 348 344 347 345 344 345 345 344 343 345 345 344 345 345 345 343 342 340 336 331 330 327 323 328 333 334 332 331 330 330 333 334 334 335 335 337 338 337 338 337 337 337 338 339 339 339 339 340 340 339 338 337 335 335 334 333 336 338 338 337 337 335 333 332 331 331 332 332
315 319 321 325 322 318 322 324 320 318 318 317 317 318 318 317 317 317 318 318 318 334 351 352 351 359 357 349 354 349 342 345 344 344 345 345 345 344 345 345 345 345 345 344 343 343 340 334 331 331 328 325 329 334 335 334 333 331 330 332 332 334 335 335 335 336 337 337 337 337 338 339 338 338 338 339 339 339 338 337 336 336 336 333 332 334 336 335 334 332 332 331 331 331 331 331 332
313 314 316 321 320 317 320 319 316 315 317 317 315 316 318 316 316 316 316 317 317 337 355 351 354 360 354 350 352 346 342 344 344 345 345 345 345 344 345 345 345 345 344 343 343 343 339 334 332 331 327 325 330 336 336 335 336 335 333 333 334 335 335 336 334 335 336 337 338 338 339 339 338 337 337 338 338 338 338 337 336 336 335 333 331 332 332 332 330 330 330 330 330 330 330 331 332
314 314 315 320 319 317 319 316 315 315 315 315 313 314 314 313 314 313 315 314 316 346 359 349 352 356 352 352 352 345 343 344 344 345 345 345 344 345 345 345 344 343 344 342 343 342 338 335 333 330 326 326 332 337 337 336 338 338 338 336 335 334 335 335 334 335 335 336 337 337 337 337 337 336 337 337 337 337 337 337 337 336 335 334 332 330 330 330 329 330 330 329 330 329 330 331 332
317 315 317 324 322 317 317 316 315 315 314 314 315 314 315 313 313 313 315 314 325 351 356 352 353 350 351 352 349 344 342 344 344 344 344 345 345 345 345 345 344 343 343 342 343 341 338 337 335 330 326 330 335 337 338 338 339 338 338 335 334 335 335 334 334 334 333 334 334 334 334 333 334 334 335 336 337 337 337 336 337 336 333 333 332 330 328 328 329 329 329 329 329 329 330 330 332
317 315 321 327 323 318 318 318 317 317 316 315 317 316 316 313 313 315 310 318 344 358 354 355 352 348 352 353 348 342 341 342 343 343 343 344 344 345 344 344 343 342 343 343 343 341 339 339 338 336 332 334 336 338 339 339 340 338 336 334 334 336 334 333 333 333 333 333 333 333 332 332 333 333 334 334 336 336 336 336 335 333 332 333 333 331 328 327 328 328 329 329 329 329 329 330 331
319 317 322 321 319 320 318 318 318 320 319 316 316 315 313 313 321 320 315 332 354 357 352 351 350 350 353 351 347 341 341 342 341 343 343 344 344 344 343 342 342 342 343 343 342 341 340 340 340 340 337 337 338 339 339 340 339 337 336 335 336 335 332 332 334 334 334 334 335 335 334 333 333 333 333 333 333 333 334 335 334 334 334 334 333 333 331 329 328 329 329 329 329 329 329 329 331
318 317 323 316 315 319 316 315 316 316 316 315 314 314 312 314 331 334 334 352 356 352 351 348 348 353 354 349 347 342 342 342 341 343 342 343 343 343 343 343 343 343 343 343 342 341 341 341 340 339 337 338 340 339 340 340 339 338 337 337 335 333 331 333 335 336 335 336 336 336 335 334 333 333 333 333 333 332 333 334 336 336 337 336 334 334 334 331 329 328 329 329 329 328 329 329 331
314 318 325 318 315 316 313 313 314 314 314 315 312 312 312 314 339 350 347 354 353 348 349 347 347 354 355 351 349 344 342 342 342 342 342 343 342 343 344 343 344 343 343 343 343 342 341 340 339 339 338 339 340 339 341 340 340 339 338 337 334 331 332 334 336 336 336 337 337 336 334 333 334 334 333 333 333 332 333 334 336 336 337 337 335 335 335 332 329 328 327 327 328 328 329 329 330
314 320 322 317 318 316 313 313 313 314 314 316 312 312 313 315 340 356 348 348 352 349 349 350 349 351 351 350 348 343 342 343 341 341 341 341 341 343 343 343 344 343 343 343 343 342 340 339 339 340 339 340 339 339 341 341 341 340 338 336 333 332 334 335 336 336 337 337 338 337 334 333 334 334 334 334 333 332 331 332 332 333 334 334 332 333 332 329 327 326 326 326 327 328 329 329 329
315 322 322 317 317 315 314 314 314 315 315 316 312 311 313 314 333 350 348 347 351 350 348 349 348 347 348 347 345 342 343 342 341 341 340 341 342 342 343 343 343 343 343 343 343 342 340 338 340 341 340 340 339 339 340 341 341 340 338 336 333 334 336 336 336 337 337 338 338 337 335 334 333 334 334 334 333 332 331 330 330 331 330 326 325 324 324 322 323 324 325 326 327 328 329 329 329
316 321 321 317 315 315 316 316 316 313 313 313 311 312 313 313 320 338 353 351 347 350 348 347 346 345 346 344 344 343 343 342 340 340 340 341 341 342 342 342 342 343 343 342 342 341 340 340 341 341 341 341 339 340 340 341 341 340 338 335 334 335 336 337 337 337 338 338 338 337 335 334 334 333 333 333 334 334 332 330 328 329 325 323 322 321 321 320 321 323 325 327 328 328 329 329 329
319 319 317 318 317 315 314 315 314 311 312 312 312 312 312 314 312 332 361 357 347 351 350 349 349 347 345 344 343 343 342 341 340 339 340 341 341 341 342 342 343 343 342 342 342 341 341 342 342 341 341 340 339 340 341 341 340 339 337 334 335 336 338 338 338 338 338 338 338 337 335 334 334 333 333 334 335 334 334 329 325 325 324 324 323 322 323 322 323 325 327 328 328 328 329 329 329
319 318 318 318 315 314 313 312 312 312 312 311 312 311 312 313 312 335 361 355 348 350 351 351 352 350 347 345 342 342 342 340 339 339 340 340 340 341 341 342 342 343 342 342 342 341 342 343 341 341 341 339 339 340 340 341 340 339 335 334 336 338 338 338 338 338 337 337 337 336 334 334 334 334 334 336 335 335 334 330 324 324 325 325 324 323 324 325 325 327 328 329 329 329 329 329 329
317 318 320 316 312 314 314 312 313 313 312 311 312 312 313 312 319 348 359 356 355 348 348 350 351 351 347 346 343 342 342 340 340 339 339 339 340 340 341 342 341 342 341 342 343 342 342 342 341 341 340 339 339 340 340 341 340 337 334 335 338 338 338 339 339 338 337 337 336 334 333 333 334 335 336 335 335 334 334 331 326 324 324 325 326 325 326 326 327 329 330 330 330 330 330 330 329
315 318 319 315 313 314 314 313 314 313 311 311 312 312 313 311 322 355 361 357 359 349 346 347 346 347 346 345 343 342 342 341 340 338 338 339 339 341 341 341 341 342 342 344 344 342 342 341 340 340 340 339 339 340 340 341 339 335 335 337 338 337 338 338 338 338 337 336 334 333 332 332 334 336 336 334 333 333 333 332 329 325 324 325 326 327 327 328 328 329 330 331 331 331 330 330 329
316 320 319 316 314 314 313 313 314 313 311 311 313 311 312 311 312 344 362 354 351 349 346 345 344 344 344 343 342 342 343 341 339 337 338 339 339 341 340 341 341 341 342 344 343 342 341 341 340 340 340 339 339 340 340 340 337 334 336 338 336 337 337 338 338 337 335 334 333 333 332 332 335 336 335 333 332 332 332 332 330 329 327 327 328 328 328 328 329 330 331 331 331 330 330 329 329
316 319 319 317 316 315 314 314 313 312 311 311 312 309 311 312 307 333 360 352 345 348 346 344 343 343 342 342 341 342 342 340 339 338 339 339 339 340 340 341 342 342 342 343 343 342 341 341 340 339 339 340 340 340 339 339 337 334 337 337 336 336 337 337 337 336 334 333 333 332 331 332 335 335 334 333 333 332 331 331 331 331 330 330 330 330 329 330 331 331 331 331 331 330 329 328 328
316 318 316 316 316 316 315 314 313 312 311 310 310 311 311 310 312 332 351 350 347 346 345 344 342 342 342 342 341 340 340 340 339 339 339 338 338 339 339 341 342 342 342 343 343 342 341 340 340 339 339 339 339 339 338 338 336 335 336 336 336 336 336 336 336 335 334 333 333 332 331 332 333 334 334 334 333 332 332 332 332 332 332 331 331 332 332 332 332 331 331 331 331 330 330 328 327
318 318 316 316 316 315 315 313 314 312 310 310 309 313 311 310 320 334 346 349 348 344 344 344 343 343 342 341 340 338 339 339 339 340 339 338 338 339 339 341 342 341 342 342 342 342 341 340 339 338 338 338 338 338 338 338 335 334 335 335 335 335 335 336 335 335 334 333 332 332 333 332 333 333 333 333 333 332 332 332 332 332 333 332 332 332 332 332 332 332 331 331 330 330 330 328 327
317 317 316 316 314 313 312 311 313 310 309 311 309 312 311 311 322 338 350 349 345 344 344 343 344 345 342 341 340 338 338 336 335 337 337 337 338 338 340 341 341 340 341 342 340 340 340 339 339 337 337 338 338 339 338 337 334 333 334 335 335 334 334 334 335 334 333 332 332 333 333 333 333 333 333 333 332 332 332 332 332 332 332 332 333 333 332 332 331 331 331 331 330 330 329 328 328
313 313 312 313 312 311 311 311 312 309 311 313 311 312 311 312 317 337 353 347 343 344 344 344 345 345 342 340 339 338 335 333 334 335 336 335 336 337 339 340 340 340 341 341 340 339 338 339 338 336 337 338 338 338 337 335 333 332 334 335 334 334 334 333 334 335 333 333 333 332 333 333 333 333 333 333 332 331 331 331 332 332 332 332 332 332 333 332 331 331 331 330 330 329 329 328 328
310 311 310 313 313 312 312 313 311 310 312 314 313 312 314 315 312 334 351 345 344 344 344 345 345 345 343 340 339 337 333 333 335 336 336 335 335 336 337 339 339 339 340 339 339 338 338 338 338 337 336 337 338 337 336 333 331 331 333 334 334 335 334 333 334 335 334 333 333 332 332 333 333 333 333 333 332 332 332 332 332 331 332 332 332 332 332 332 331 331 331 330 329 329 329 329 328
311 310 310 313 313 315 314 312 310 309 312 313 313 311 318 322 313 333 350 344 344 345 345 346 345 346 342 340 340 337 333 333 335 335 336 335 335 337 336 338 338 338 339 338 338 337 337 337 337 338 337 337 338 337 335 332 330 332 333 334 335 335 333 333 334 334 334 333 333 332 332 333 332 333 333 332 333 333 332 331 332 332 332 332 331 331 331 331 331 331 330 330 330 329 329 329 328
313 310 312 312 311 318 317 313 311 311 312 312 313 311 318 320 313 334 351 344 346 347 345 346 346 345 341 339 339 337 334 332 332 333 335 336 337 337 336 337 337 337 338 337 337 336 336 337 337 337 337 337 337 336 334 331 330 332 334 335 335 335 334 334 335 334 334 333 333 332 333 332 332 332 332 332 332 332 332 332 331 331 331 331 331 331 331 331 331 331 331 330 329 329 329 329 328
316 310 315 316 311 317 318 314 313 312 312 311 312 312 317 315 313 337 351 343 347 346 345 346 345 345 341 339 339 338 336 331 329 331 335 338 338 338 337 337 337 337 337 336 336 336 336 337 336 337 336 336 336 335 333 331 331 333 335 336 335 334 334 334 335 334 334 334 334 333 333 332 332 332 332 331 332 332 332 332 331 331 331 331 330 331 331 331 331 330 330 330 329 329 329 328 327
320 313 314 318 313 314 315 314 313 311 312 311 312 313 318 314 311 336 352 344 347 346 345 347 345 346 341 339 339 338 337 333 331 332 335 338 338 339 338 337 337 337 336 336 336 336 336 337 336 335 335 335 335 333 332 332 333 335 335 335 335 334 334 334 334 334 334 334 334 333 332 332 332 332 332 332 332 333 332 331 331 331 331 331 331 331 330 331 331 330 330 330 329 329 328 328 327
323 316 314 317 315 313 314 314 313 310 311 312 312 312 318 315 309 332 352 345 347 348 346 347 346 345 342 339 339 338 338 335 333 335 337 338 338 339 338 337 338 337 337 336 336 336 337 337 336 335 334 334 334 333 333 334 335 335 335 335 335 335 335 334 334 334 334 333 333 333 332 332 332 332 331 332 333 333 332 332 332 331 332 331 331 330 330 330 330 330 330 330 330 328 328 327 327
318 314 314 318 316 313 313 315 314 312 312 312 312 312 316 316 310 329 352 347 347 349 346 346 346 344 342 340 338 338 338 336 335 336 338 338 339 339 338 338 338 337 337 336 337 337 337 336 335 335 334 334 334 334 335 335 335 335 335 335 335 335 334 333 333 333 333 333 333 333 332 332 332 332 331 332 333 332 332 332 332 332 331 331 330 330 330 330 330 330 330 329 329 328 328 328 327
313 312 315 317 314 312 312 313 314 311 311 312 312 313 316 317 312 323 344 349 348 348 347 346 345 344 342 340 339 338 338 338 336 336 338 338 338 339 339 339 338 338 337 337 337 337 337 335 335 335 334 334 335 335 336 335 335 335 335 335 336 335 333 333 333 333 333 333 333 333 332 332 332 332 332 333 332 332 332 332 332 332 331 331 330 329 330 330 330 330 330 329 329 328 328 328 327
310 312 313 313 312 311 310 312 314 310 311 318 318 315 315 317 314 317 335 350 350 347 348 347 346 345 342 340 339 338 338 337 336 336 338 338 338 338 339 338 338 337 337 337 337 337 337 335 335 335 334 335 336 335 336 335 335 335 335 335 335 334 333 333 334 334 334 333 333 332 332 332 332 332 332 332 332 332 332 332 332 331 331 331 330 329 331 331 330 330 329 329 329 328 328 328 328
311 312 312 311 311 310 309 310 313 310 313 321 319 315 316 318 316 315 329 349 352 347 348 347 346 344 341 341 340 338 339 337 337 337 338 338 338 338 338 338 337 336 336 337 337 337 336 335 336 336 335 335 335 336 336 335 335 334 334 334 334 334 334 335 334 334 333 333 333 332 332 332 332 331 331 331 332 332 332 332 332 331 331 331 330 330 331 331 330 330 329 328 329 328 328 328 328
313 312 312 313 312 312 312 313 314 312 313 320 319 316 317 318 317 314 325 346 351 346 346 346 346 344 341 341 340 339 340 339 338 338 338 338 338 337 337 337 336 336 336 336 337 337 336 336 335 335 335 335 335 336 336 335 335 334 333 333 333 335 335 335 334 332 331 331 332 332 332 331 330 330 331 331 332 332 332 332 331 331 331 330 330 330 331 331 330 330 329 328 328 328 328 328 328
316 314 312 313 313 312 315 317 317 315 314 318 316 316 318 319 319 316 319 336 347 345 345 344 344 344 342 340 340 340 341 340 339 339 339 338 337 337 336 336 335 335 335 335 336 336 336 335 335 335 335 335 335 336 336 335 335 334 333 332 334 336 335 334 331 330 329 329 330 330 330 331 330 330 331 331 332 331 331 331 330 330 330 330 329 330 331 331 330 330 330 329 328 328 328 328 328
321 319 313 313 313 312 314 315 316 319 322 320 314 317 326 326 325 320 315 323 337 342 343 344 343 342 341 340 340 341 341 340 339 340 339 338 337 337 336 335 335 334 334 335 335 336 336 335 335 335 335 335 336 336 336 335 335 335 333 333 335 335 334 333 330 329 329 329 329 329 330 330 330 329 330 330 330 330 330 330 330 330 330 330 330 330 330 330 330 331 330 329 328 328 328 328 329
320 321 316 313 313 314 313 313 314 320 326 322 313 318 330 330 327 323 318 321 332 340 343 343 343 341 340 341 341 341 340 339 339 338 338 338 337 336 336 335 334 333 334 334 335 335 336 336 335 335 334 335 335 335 335 334 334 334 333 334 335 334 334 333 330 328 328 328 328 328 329 328 327 327 328 328 329 329 329 329 329 329 330 330 330 330 330 330 330 331 331 330 328 328 328 328 329
315 320 320 314 312 314 314 313 315 320 324 319 314 318 323 324 322 320 323 329 334 339 342 342 343 341 340 340 342 340 339 339 338 337 337 337 337 336 336 335 333 333 333 333 334 335 336 336 334 334 334 334 335 334 334 334 334 333 333 335 335 333 334 333 329 327 327 327 327 327 327 326 325 325 326 326 327 328 328 329 329 330 330 330 330 330 330 330 330 330 330 330 328 328 328 328 329
316 322 322 316 313 314 314 313 315 321 324 321 322 322 317 320 321 319 328 337 337 340 341 342 343 342 340 341 341 340 339 339 338 337 337 337 337 336 335 335 333 331 332 332 333 334 335 335 334 334 334 334 334 334 334 334 333 333 334 335 335 333 333 332 330 329 328 327 327 327 327 326 324 324 325 325 326 327 328 329 329 330 330 330 330 330 330 329 329 330 330 329 329 328 329 328 329
317 322 320 315 314 315 314 315 318 320 318 319 324 320 314 326 330 323 332 341 338 340 340 341 343 341 341 342 340 340 339 338 337 336 337 336 336 336 334 333 332 331 331 332 332 333 334 334 333 333 333 333 334 334 335 334 333 334 335 335 334 334 333 333 331 329 328 327 327 327 327 327 324 323 324 324 325 326 327 328 329 328 328 328 329 329 329 329 328 328 329 329 329 328 329 329 329
315 318 316 314 317 318 316 318 318 316 315 316 322 320 314 328 335 328 337 345 339 339 339 340 343 341 342 342 339 339 338 338 337 335 336 336 335 335 333 332 331 330 330 330 332 332 333 334 333 332 332 334 334 334 335 334 334 335 334 335 334 333 332 332 331 328 327 326 325 326 327 326 325 324 324 324 325 326 326 327 327 326 325 326 328 327 327 328 328 327 328 328 328 328 329 329 328
312 314 314 314 319 322 323 327 321 314 318 317 318 323 317 321 332 332 339 342 336 338 341 341 343 342 342 341 338 339 339 338 336 335 335 335 335 333 332 331 330 329 330 330 331 331 332 333 333 332 332 333 334 334 334 334 334 334 334 334 333 332 331 330 328 327 325 324 324 325 325 325 325 325 324 324 325 325 325 325 325 324 324 325 326 326 326 327 327 327 327 327 327 327 328 328 328
311 316 317 316 321 322 322 328 322 314 322 322 317 320 316 318 327 330 333 333 329 334 341 342 343 343 341 339 337 337 338 338 337 336 335 334 334 333 331 331 329 329 329 329 330 330 331 332 333 333 332 333 334 333 334 334 333 333 333 332 331 330 330 328 327 326 325 324 324 324 324 325 325 325 324 324 324 324 324 324 324 323 323 324 325 326 327 327 327 326 327 327 327 327 328 328 328
311 317 318 317 320 320 319 323 322 318 322 323 320 318 317 324 330 329 331 331 328 330 335 340 343 342 341 339 337 336 337 338 336 334 332 331 333 333 331 331 329 329 330 330 330 330 330 331 332 333 332 333 333 333 334 333 333 332 331 331 330 328 327 327 326 326 325 324 323 323 324 324 325 324 324 323 323 323 324 324 324 322 321 322 325 327 327 327 327 326 326 326 327 327 327 327 328
311 314 317 318 319 319 321 324 321 319 319 318 318 317 317 326 329 329 331 332 332 329 328 337 343 341 340 337 336 337 336 335 334 333 332 331 333 332 332 332 330 330 330 330 331 330 331 331 331 332 332 332 333 332 333 332 331 331 329 329 329 326 325 325 325 325 325 325 324 323 324 324 324 324 323 323 322 323 324 324 323 322 320 320 324 327 327 327 327 327 326 326 326 326 326 326 327
310 313 315 317 323 322 322 326 321 318 320 320 319 315 319 330 330 329 332 333 335 333 330 339 343 340 340 338 335 336 334 334 335 335 333 331 332 331 332 332 331 330 329 330 331 331 331 331 331 331 331 332 333 332 332 331 329 328 328 328 327 325 325 325 325 324 324 325 324 323 323 323 324 324 323 322 322 322 324 324 323 321 319 318 321 325 326 325 325 325 326 325 325 325 325 325 325
311 312 313 314 321 324 321 323 323 323 323 322 322 321 326 335 333 330 336 337 337 337 336 340 341 338 338 337 335 334 333 333 334 332 331 331 331 331 331 332 331 330 328 328 330 330 331 331 331 331 330 331 331 331 331 328 326 327 327 327 326 325 325 325 324 324 324 325 324 323 323 324 324 324 323 322 321 322 323 324 322 321 320 318 319 323 324 324 322 321 322 323 323 323 323 322 322
314 312 315 314 314 320 322 318 317 321 322 319 325 335 337 336 333 332 337 341 340 340 340 339 339 338 338 337 334 332 330 329 328 329 330 331 330 330 331 332 331 329 326 327 328 329 331 331 330 330 329 329 329 328 328 326 325 326 326 326 326 325 324 324 323 324 324 324 324 323 323 323 324 323 323 322 321 321 322 323 322 321 320 319 318 320 322 322 320 317 317 319 319 318 318 318 319
317 315 316 314 311 318 326 326 322 321 322 323 328 338 340 336 336 335 336 338 339 340 340 339 337 338 339 336 332 330 329 328 328 329 330 330 330 331 332 331 331 329 326 326 328 330 331 331 331 330 327 327 327 327 327 325 325 325 325 325 325 324 323 323 323 323 324 323 323 323 323 323 323 323 323 322 321 320 321 322 322 320 319 319 318 318 319 321 319 316 315 316 316 315 315 316 316
316 320 316 314 317 320 320 324 326 321 320 326 328 328 332 337 337 335 333 333 334 334 333 333 333 334 335 333 330 329 329 329 330 330 330 331 330 330 331 332 331 330 327 327 328 330 331 330 329 329 327 326 327 327 327 325 325 325 325 324 324 324 322 322 323 323 323 323 323 323 323 322 322 322 322 321 321 320 320 320 321 320 318 318 317 316 318 319 318 315 314 314 314 314 314 314 314
311 314 314 317 326 326 319 321 325 322 322 328 328 327 335 338 331 329 330 330 331 331 329 329 329 329 329 328 328 328 328 329 330 330 330 331 330 330 331 331 331 329 328 328 329 330 330 329 327 326 327 328 328 329 327 326 325 324 323 323 323 323 322 322 323 322 323 324 324 323 323 322 320 320 321 321 320 319 319 319 319 319 318 317 315 315 317 317 316 315 314 314 313 313 313 313 312
313 314 315 319 322 319 318 319 318 322 328 329 329 333 339 333 325 327 329 328 330 331 330 330 328 328 328 328 328 327 327 329 329 330 331 330 329 329 329 329 330 329 328 328 329 329 329 328 326 325 326 327 328 329 327 326 326 325 322 322 322 322 322 322 322 322 323 324 323 323 323 322 320 320 320 320 319 319 318 318 318 318 316 315 313 313 315 316 315 315 314 314 314 313 313 313 312
323 325 323 324 324 320 321 320 317 322 327 327 332 341 340 328 323 328 328 328 330 330 330 331 329 328 328 328 328 327 327 328 328 329 330 330 328 327 327 328 328 328 328 328 327 328 329 328 326 326 326 327 328 328 327 326 327 325 322 322 322 322 322 322 322 323 324 324 323 323 323 321 320 319 319 319 319 318 317 317 317 316 315 315 313 312 313 315 315 315 314 314 313 313 312 312 312
Wind_Speed
6 6 6 4 3 2 2 3 2 2 2 1 4 1 5 5 2 3 3 3 2 3 2 3 1 3 1 3 7 7 4 1 3 4 3 3 12 20 22 28 32 30 28 26 25 25 26 26 25 24 23 22 23 24 23 22 22 22 22 23 23 24 23 23 24 24 23 24 24 24 24 23 22 22 23 23 23 21 22 21 19 19 19 19 19 19 20 21 22 20 20 20 19 19 19 19 18
7 7 6 4 3 2 1 3 3 3 3 3 4 4 5 2 2 4 3 2 3 4 3 2 1 4 3 4 6 5 5 4 2 3 1 9 17 18 25 31 31 30 28 27 26 25 26 25 25 24 23 23 24 23 23 21 21 21 22 23 23 24 24 24 24 24 23 23 23 22 21 21 21 22 22 21 21 20 20 20 19 19 19 19 19 20 20 21 21 19 19 19 18 18 18 17 16
9 8 5 4 3 3 1 3 2 1 2 4 5 4 3 2 5 3 4 6 6 6 5 4 1 2 2 3 3 2 2 2 4 2 5 14 13 17 29 31 30 30 28 27 26 26 27 25 25 24 23 24 24 23 23 21 21 22 23 23 24 24 24 24 23 23 23 23 23 22 21 21 21 21 21 20 20 19 18 19 19 19 19 19 19 20 20 20 19 19 19 18 18 18 17 16 15
10 7 4 3 2 4 3 3 2 4 2 4 4 5 3 4 5 2 5 7 6 7 4 2 2 2 3 4 2 2 3 3 4 4 5 10 12 21 30 29 29 28 27 27 26 28 27 26 25 24 23 24 24 24 23 21 21 22 22 23 24 24 23 23 22 22 21 21 22 22 22 21 20 20 19 19 19 18 18 17 18 18 19 18 18 19 20 20 19 18 18 17 17 17 16 15 14
9 6 3 2 2 1 3 2 2 3 4 4 2 5 3 5 5 4 6 5 8 8 5 2 2 3 3 4 1 1 3 4 4 5 6 9 18 27 28 27 28 27 26 25 26 28 27 26 24 23 22 23 25 24 24 22 22 22 23 23 23 23 22 22 22 21 20 20 20 21 21 21 21 19 18 18 18 18 18 18 19 18 18 18 19 19 19 19 18 18 17 17 16 16 15 14 13
8 6 4 4 2 1 3 1 2 3 5 5 3 6 4 5 5 6 7 6 8 6 2 3 2 0 3 3 2 2 2 4 4 5 8 15 25 28 27 27 27 26 25 25 26 28 27 25 24 24 22 23 25 25 24 23 22 23 23 22 22 22 21 21 21 20 20 19 20 21 21 21 20 20 20 19 19 18 19 19 19 17 16 17 18 19 19 19 18 18 17 16 16 15 14 13 11
7 4 3 4 2 1 4 2 4 4 5 5 4 6 6 6 3 6 8 6 6 3 3 3 4 4 3 2 2 3 3 2 4 7 12 20 27 28 27 27 26 26 25 25 26 27 27 26 25 24 22 23 25 25 24 23 23 22 22 22 21 20 19 19 20 20 19 19 20 20 20 20 19 19 20 19 19 19 19 18 16 14 14 15 17 19 19 18 18 18 17 16 16 15 13 12 11
5 2 1 4 2 2 3 2 4 3 4 5 5 7 10 8 5 7 6 4 4 2 1 4 5 4 2 3 2 4 6 4 7 12 19 24 27 27 26 27 26 25 24 25 26 26 25 25 25 23 23 23 25 25 23 23 22 22 21 20 20 18 17 17 18 19 18 18 19 19 19 19 18 18 18 18 18 18 18 15 13 13 13 15 17 18 18 18 18 18 18 16 15 14 13 13 11
3 2 1 3 2 1 1 3 4 3 5 6 6 9 10 8 5 6 7 5 3 2 4 5 4 4 4 4 1 5 6 7 12 17 22 25 26 26 25 26 27 25 24 25 26 26 24 25 25 24 23 23 25 23 22 23 22 21 20 19 19 18 17 16 17 17 17 18 18 18 18 18 17 17 16 17 17 17 16 14 14 14 14 15 17 18 18 18 19 19 18 16 14 13 13 14 12
3 2 2 2 3 0 3 3 3 3 5 5 7 11 10 8 6 6 7 7 5 4 4 5 6 7 7 3 0 4 2 12 19 20 21 24 24 24 24 24 26 27 26 26 28 27 26 25 24 24 23 23 24 22 21 22 21 21 19 19 18 18 17 16 16 16 17 17 17 17 16 16 15 15 15 16 16 15 15 14 15 15 14 15 16 17 17 18 18 18 16 15 14 13 14 14 14
3 2 3 3 3 1 4 4 4 4 5 5 8 11 7 7 5 5 6 7 6 5 5 4 7 9 8 3 1 2 5 13 18 20 20 22 22 22 23 23 24 26 26 28 28 28 27 25 23 24 23 24 24 22 21 21 21 20 19 18 18 17 16 16 16 16 16 16 16 15 15 15 15 15 15 15 15 15 15 14 14 14 14 14 14 15 16 17 17 16 15 14 13 13 14 14 14
2 2 4 4 2 3 4 3 5 5 7 5 6 6 3 5 4 5 6 6 4 7 4 3 7 8 7 2 0 3 8 10 13 19 20 19 20 21 23 24 24 24 26 27 27 27 27 24 23 23 23 24 23 22 21 21 21 20 19 18 17 17 16 16 16 15 16 16 16 16 15 16 16 16 16 16 15 14 14 13 12 12 14 14 13 13 14 15 15 15 14 13 13 12 13 14 14
3 2 5 3 3 3 3 2 4 5 6 4 4 6 6 7 6 6 6 5 6 7 3 5 10 6 5 2 1 3 6 8 13 18 18 19 19 21 23 25 25 25 25 26 26 26 26 25 24 23 23 23 23 22 21 21 20 20 19 17 17 17 17 17 17 16 16 16 16 16 16 16 16 16 15 15 15 14 14 13 12 12 14 14 12 12 12 13 14 13 12 11 12 12 13 13 14
3 3 4 2 1 2 2 2 3 2 4 4 2 6 7 6 6 4 2 5 4 4 3 7 9 6 4 3 2 2 5 11 16 18 18 19 19 21 23 25 24 24 24 24 26 26 26 25 24 23 22 22 23 22 20 21 20 20 18 17 17 17 18 17 17 17 16 16 16 16 16 16 16 16 15 15 14 14 14 13 12 13 13 13 11 10 10 11 11 11 10 10 10 11 12 12 14
3 2 4 2 1 2 2 2 2 2 4 3 1 6 8 6 5 5 4 3 1 1 5 6 4 4 5 7 4 6 11 18 19 19 21 20 20 20 21 23 23 22 22 23 24 24 25 25 24 23 23 23 23 22 20 21 20 19 18 17 17 18 18 18 17 17 16 16 17 16 16 16 16 16 16 15 14 14 13 12 12 12 12 12 10 9 9 9 9 9 9 9 9 10 10 11 13
3 3 4 1 2 2 2 3 3 2 4 3 2 6 8 7 4 5 4 2 3 2 4 3 1 1 6 7 7 13 20 22 21 22 23 21 20 19 19 21 21 21 21 21 22 23 24 25 24 23 23 23 23 22 21 20 19 18 17 17 17 17 18 17 17 16 16 16 16 16 16 16 16 16 16 15 15 13 13 12 11 11 10 10 9 8 7 7 7 8 9 9 9 9 9 10 12
3 4 4 0 3 4 3 4 4 3 5 4 5 8 7 7 4 3 4 7 4 4 6 3 3 3 4 7 15 23 25 24 24 25 23 22 20 19 18 19 21 21 20 20 21 22 24 24 24 23 23 23 22 21 20 19 19 18 17 17 16 16 17 17 17 16 16 15 15 15 15 16 16 16 15 15 15 14 13 12 11 11 9 9 8 8 8 7 8 9 9 9 9 9 8 9 11
3 3 3 2 4 4 5 5 5 3 5 6 7 7 5 7 7 1 4 8 5 5 6 5 7 7 9 16 24 26 26 27 27 26 23 21 19 17 17 19 21 21 21 20 20 22 23 23 23 24 24 23 22 21 21 19 19 19 18 17 16 16 16 16 16 16 16 15 14 14 14 15 15 15 14 14 14 14 13 11 11 11 11 10 10 9 9 9 9 9 9 10 9 8 7 8 10
2 3 2 5 5 4 5 5 3 3 6 8 8 4 5 7 6 3 3 2 5 3 5 6 10 10 12 17 22 23 25 26 24 24 22 21 19 18 18 20 21 21 22 21 20 21 21 22 23 24 24 24 23 22 21 20 19 19 19 18 17 16 16 16 17 17 16 15 14 14 13 13 13 13 12 13 13 13 13 11 12 12 12 12 11 10 10 10 10 10 10 10 9 8 7 7 8
2 4 2 6 5 4 4 4 5 6 6 8 8 4 6 8 5 1 3 3 4 3 4 8 11 12 13 12 16 21 23 21 22 21 20 21 21 21 21 22 23 23 23 22 21 21 21 22 23 24 24 24 24 23 22 20 20 20 20 19 18 17 17 17 16 16 16 15 14 14 13 13 13 12 12 12 12 12 12 11 12 12 12 11 11 11 11 11 11 11 10 9 8 7 7 7 7
2 3 5 5 3 2 5 5 6 7 5 4 7 7 8 8 3 2 6 5 3 7 8 9 14 16 15 12 12 17 19 17 18 18 17 19 18 18 20 23 25 24 24 23 22 22 22 23 24 25 24 25 25 24 23 21 20 20 19 19 18 17 17 17 16 15 15 14 14 14 13 13 13 13 12 11 11 12 12 11 11 11 10 10 10 11 11 11 11 10 9 8 8 7 7 7 7
2 5 7 4 1 4 5 4 6 6 4 5 6 7 6 6 4 2 7 6 5 5 7 8 14 19 18 15 12 13 16 15 15 14 15 16 16 15 16 20 22 23 24 22 22 23 23 24 25 26 25 26 25 24 23 20 20 20 19 19 18 17 17 17 16 15 15 14 14 13 13 13 12 12 11 10 10 10 11 10 10 9 8 8 9 9 10 10 9 8 7 7 7 6 6 7 7
2 6 5 4 4 4 5 5 7 5 4 7 5 4 4 4 7 4 9 9 5 2 5 9 13 16 16 14 13 12 14 16 14 13 14 17 18 18 17 19 20 22 24 22 22 25 25 25 26 27 27 26 25 24 22 20 21 21 19 18 17 17 17 17 16 15 14 14 13 12 12 12 12 12 10 9 8 9 9 10 9 8 7 8 8 8 8 8 6 6 6 6 6 6 6 6 6
4 6 4 3 5 6 7 7 8 6 4 9 4 4 5 3 6 2 6 7 2 4 8 13 12 12 13 12 11 12 13 14 14 15 16 18 20 20 19 19 19 22 23 22 23 25 26 26 27 27 27 26 25 24 21 21 22 21 19 17 17 16 16 16 16 15 14 13 12 11 11 11 11 11 9 8 8 8 8 8 8 8 7 7 7 6 6 5 5 5 5 5 5 5 5 5 5
5 6 4 3 4 6 7 6 9 8 7 7 4 6 7 5 3 1 5 5 4 8 9 13 13 12 11 10 10 10 11 12 14 16 14 14 18 19 19 18 19 21 21 21 23 25 27 27 27 27 26 25 24 23 22 21 22 21 19 18 16 15 15 14 14 14 13 12 11 10 10 10 10 9 8 8 7 7 7 7 7 7 6 6 5 5 4 4 4 4 4 4 4 5 5 5 5
6 6 4 4 5 6 6 6 9 8 5 1 4 10 7 3 3 2 5 1 7 9 10 12 13 12 9 8 10 9 8 8 8 13 14 18 21 19 18 17 19 21 19 21 24 25 26 27 26 26 25 25 23 23 22 21 22 21 19 18 16 14 14 13 13 13 12 12 11 10 9 8 7 6 6 7 6 5 5 5 6 6 6 5 4 3 3 3 2 3 3 4 4 4 4 4 4
4 4 5 6 6 7 4 6 9 6 5 3 5 10 5 1 2 3 3 5 10 11 12 13 12 11 9 8 10 8 7 5 4 3 7 13 18 21 21 19 20 22 19 22 25 25 26 27 26 26 25 24 23 22 21 21 22 21 19 18 15 13 13 12 12 12 11 11 11 10 8 7 6 5 5 5 4 4 3 3 3 5 5 5 3 3 3 3 2 2 2 3 4 4 4 4 4
3 3 5 6 5 6 4 6 8 3 5 5 7 7 4 2 2 5 4 8 11 13 14 14 12 10 9 8 8 6 6 7 8 7 5 4 6 12 18 21 23 22 21 24 26 26 27 27 27 26 25 23 23 22 20 21 21 19 18 16 14 12 13 12 12 12 11 11 11 10 8 6 5 4 4 4 4 4 3 2 1 3 4 3 3 4 5 4 4 2 2 3 4 4 4 5 5
3 2 3 7 6 6 5 6 5 2 4 3 7 4 7 1 5 5 6 10 10 12 13 14 13 10 8 7 5 6 7 7 8 10 14 18 17 16 18 20 24 23 24 26 26 28 27 27 26 26 25 23 23 22 21 21 20 18 16 15 13 12 13 12 11 11 10 10 10 9 7 5 4 5 5 5 5 4 3 1 1 2 3 3 4 5 6 5 4 4 4 4 4 4 4 5 5
3 1 1 5 7 6 6 3 2 2 4 3 6 3 7 6 8 5 9 12 12 12 13 13 12 9 7 7 5 7 11 10 9 12 16 23 25 28 27 25 26 24 25 27 27 29 27 24 25 25 25 24 23 22 22 21 19 17 15 14 13 12 12 11 11 10 9 9 8 8 6 4 4 5 5 5 5 4 4 2 2 4 4 5 6 6 6 5 5 5 5 6 6 5 5 5 5
2 2 0 3 2 5 8 4 1 1 3 3 6 2 6 8 8 4 10 13 14 13 13 13 11 8 6 7 6 7 10 9 7 9 10 16 20 26 31 29 28 27 27 28 29 29 26 24 24 25 25 24 23 22 21 20 17 16 15 14 13 12 12 10 9 9 8 7 7 7 6 4 3 5 5 5 4 5 5 4 4 5 5 6 7 7 6 6 6 6 6 6 6 6 6 6 6
2 1 3 3 1 4 10 5 2 2 4 1 5 2 6 7 5 6 9 11 12 12 13 13 11 8 7 6 7 7 8 10 13 14 14 16 17 20 27 30 31 30 29 28 27 26 24 23 24 24 25 24 22 21 20 18 16 15 15 14 13 12 11 9 8 7 6 7 7 6 5 5 5 6 5 5 6 6 6 5 5 6 7 7 7 7 7 6 6 7 6 5 5 7 7 6 6
3 1 2 3 1 2 6 5 1 1 3 3 1 1 5 5 3 5 8 10 10 11 12 13 11 8 7 6 5 7 8 9 14 16 16 18 18 18 22 26 29 29 28 26 25 25 23 22 23 24 24 23 22 21 19 17 15 15 15 14 12 11 9 8 7 6 6 6 6 6 6 7 7 7 7 7 7 8 7 6 7 7 7 7 7 7 7 6 6 6 7 6 4 6 7 7 7
3 2 0 3 2 1 3 4 4 4 3 4 4 1 6 6 2 4 9 11 9 10 12 12 10 7 6 6 6 7 8 10 11 13 16 20 19 18 20 22 24 25 25 25 24 23 23 22 22 22 22 22 22 21 19 17 16 15 15 13 11 10 8 7 6 6 6 6 6 7 8 9 9 8 8 9 9 8 8 7 8 8 8 7 7 7 7 7 6 6 8 7 5 5 7 8 9
2 1 0 2 3 2 2 4 4 6 6 4 4 2 8 7 1 6 10 11 10 11 12 10 9 7 7 7 7 7 8 10 11 12 16 19 19 19 22 23 22 23 23 23 23 22 22 21 21 20 21 22 21 19 18 17 17 16 14 13 11 10 9 8 7 7 7 7 7 8 9 9 9 9 9 10 10 9 9 9 9 9 8 7 7 7 8 8 7 7 8 8 7 6 7 8 11
5 4 4 3 4 3 4 4 5 3 5 5 4 4 7 8 3 6 8 10 11 10 8 8 7 6 7 7 7 8 8 9 10 13 16 17 18 20 21 22 22 22 23 23 24 23 21 20 21 20 20 21 20 19 19 19 18 17 15 13 12 10 10 9 8 8 8 7 8 9 9 9 9 9 10 10 10 9 9 10 11 10 8 7 6 7 9 8 8 8 7 8 8 8 8 9 10
3 2 2 4 5 5 2 4 6 1 1 6 6 5 7 9 7 8 9 10 10 9 8 8 8 7 8 9 9 9 8 7 9 13 16 16 18 20 21 21 22 22 23 24 24 24 21 20 22 22 21 21 20 20 20 20 19 18 16 14 12 11 11 10 10 10 9 8 9 9 9 10 10 10 10 10 10 9 9 10 11 10 9 7 6 7 8 8 7 8 8 8 8 10 11 10 11
1 2 4 4 5 6 3 4 7 3 3 5 4 3 7 10 8 7 9 10 11 12 11 11 11 8 8 10 10 9 7 5 8 11 14 17 19 21 21 20 21 22 24 25 24 23 20 19 22 24 22 21 21 21 21 20 19 18 16 15 14 13 11 10 11 11 11 11 10 10 10 10 10 9 10 10 9 9 8 9 9 9 9 8 8 8 8 8 8 8 9 9 9 12 12 13 14
2 1 3 5 4 4 5 4 4 2 3 4 3 3 8 11 8 6 10 13 13 15 16 15 14 10 9 12 11 10 9 8 10 10 12 17 20 21 21 20 21 22 24 24 21 21 20 18 21 23 22 23 22 22 21 19 18 16 15 15 15 13 11 11 13 14 13 12 12 11 11 10 9 10 10 9 8 7 7 8 9 9 9 9 9 9 9 9 9 8 7 9 11 13 13 16 15
2 3 3 5 2 1 4 4 4 1 2 5 5 4 7 8 6 4 10 13 13 14 15 13 13 13 12 13 11 11 12 12 13 10 9 15 18 20 20 19 18 19 21 22 19 20 21 19 20 22 23 24 23 21 20 18 17 15 14 14 14 13 13 13 15 16 14 12 12 11 10 10 10 10 9 8 7 7 7 8 9 9 9 9 9 10 10 10 10 9 8 9 13 14 14 17 14
3 5 6 4 2 4 6 4 5 5 4 3 3 4 5 5 5 6 6 7 9 8 9 7 8 10 9 8 9 11 13 12 13 11 9 12 16 18 19 18 17 17 19 21 19 20 22 22 21 21 22 24 23 21 20 18 18 17 15 14 14 14 15 15 16 16 13 13 12 11 11 11 10 10 9 9 8 8 7 7 8 9 9 9 9 9 9 9 10 9 9 10 13 15 15 17 14
4 5 9 8 7 8 8 3 4 5 5 2 1 3 5 5 4 6 4 4 7 4 8 9 9 9 9 10 10 11 12 12 12 11 10 12 15 16 17 17 16 17 19 21 20 20 23 23 21 20 21 23 23 21 19 19 20 19 18 18 18 17 16 16 16 16 14 13 13 12 12 11 10 10 9 9 9 8 8 7 7 8 8 9 9 8 8 9 10 9 9 10 12 14 14 17 14
4 6 10 11 9 8 8 2 3 1 3 3 3 3 4 6 4 6 6 4 6 3 7 10 9 9 11 11 11 11 12 12 12 11 10 12 13 13 15 17 16 16 18 20 20 20 23 23 20 20 21 21 22 22 21 20 21 20 20 21 21 20 19 17 16 16 15 14 14 14 13 12 10 9 9 9 8 8 8 8 8 8 8 8 7 8 8 9 9 9 8 9 11 13 13 15 15
3 6 8 9 8 8 6 3 3 3 3 4 3 4 3 5 4 6 4 1 3 4 7 9 10 11 12 13 12 13 14 13 12 12 12 12 13 15 16 15 14 15 17 20 20 20 23 23 19 19 20 21 22 23 22 21 21 21 21 20 19 19 18 18 17 16 15 14 14 14 13 11 10 9 9 9 8 7 7 8 9 8 8 7 7 8 9 9 9 9 9 9 10 11 11 13 13
6 6 7 7 7 7 5 5 4 3 2 5 5 2 2 5 5 5 2 2 4 7 9 10 12 13 13 13 14 15 14 13 12 12 13 13 14 16 16 13 13 14 17 20 21 20 21 22 19 17 19 20 21 23 22 20 20 20 20 19 18 17 17 18 18 17 15 14 14 14 14 12 10 9 8 9 8 6 7 8 9 8 8 7 7 8 8 9 9 9 9 9 10 10 10 10 11
4 5 5 3 3 3 3 4 3 1 1 5 6 2 2 4 5 4 3 1 4 6 7 8 10 12 12 13 13 13 12 10 10 11 11 12 13 13 12 12 13 13 15 18 21 19 20 21 20 17 18 20 20 21 21 20 20 20 19 18 17 18 18 19 19 18 16 15 15 15 14 12 10 9 8 9 8 7 7 8 8 7 6 6 7 7 7 7 8 7 7 8 9 9 9 9 9
2 5 5 5 5 3 3 2 3 3 2 7 6 4 3 3 5 3 1 2 4 4 5 7 9 10 10 11 11 10 10 10 8 9 9 8 11 11 10 12 13 12 13 17 19 19 19 21 22 18 17 19 20 20 20 19 19 19 18 18 19 20 21 21 21 19 18 17 16 15 14 12 11 9 8 8 8 8 8 8 7 6 4 4 6 5 5 5 5 6 7 8 9 9 9 9 9
2 3 4 3 2 3 4 4 3 2 5 7 4 3 5 3 5 4 4 5 5 6 7 10 13 12 11 11 9 8 8 8 6 6 6 6 8 8 9 12 13 13 14 16 17 19 19 20 22 21 17 18 20 19 19 18 17 18 17 18 21 22 22 23 22 20 19 18 17 16 14 13 12 11 9 8 8 8 9 9 7 5 3 3 5 5 4 4 4 5 6 7 8 8 8 8 10
4 3 4 3 1 2 2 3 0 2 7 5 1 3 4 4 5 5 7 8 7 7 8 9 11 12 9 8 8 7 6 6 4 4 4 2 0 3 6 9 12 14 15 17 19 20 21 21 22 22 20 19 19 19 19 18 17 17 18 21 23 23 23 23 22 21 20 18 17 16 15 14 13 12 10 9 8 8 10 10 8 6 4 4 4 4 4 4 4 4 5 6 7 7 7 7 8
5 5 5 4 2 2 1 3 1 3 6 3 1 2 2 4 3 4 7 9 8 8 8 6 5 7 6 6 8 8 7 7 6 7 5 2 2 2 4 7 9 12 13 16 20 21 22 22 22 22 20 19 19 19 18 17 17 17 20 23 24 24 24 23 22 21 20 18 16 15 15 14 13 12 11 9 8 8 10 11 9 7 6 4 3 4 4 3 3 4 4 5 5 6 6 6 6
4 4 5 5 4 4 3 4 3 4 4 3 2 1 3 2 3 4 5 8 7 4 5 4 3 5 6 7 8 9 9 9 8 7 6 4 2 4 6 8 9 12 12 14 18 21 21 21 21 21 21 22 21 20 18 17 18 20 22 24 24 23 23 22 21 19 18 18 16 14 14 13 12 12 11 9 8 9 11 11 9 8 7 5 3 4 4 3 3 3 4 4 5 5 5 5 4
2 2 4 2 5 5 2 3 4 2 1 2 2 1 3 3 4 4 3 4 5 4 2 5 6 7 8 8 8 8 7 7 7 8 8 5 6 7 8 9 10 12 10 8 11 18 21 20 19 20 20 22 21 18 17 16 18 20 22 24 24 22 21 21 20 18 17 16 15 14 14 13 13 13 11 9 8 8 10 11 10 8 7 5 4 4 3 4 3 2 3 5 5 5 5 4 4
1 2 4 3 4 7 4 2 1 3 2 2 1 2 4 2 2 4 4 5 5 5 5 5 5 7 8 7 7 7 6 4 1 3 6 6 6 7 8 9 11 12 12 7 6 13 20 20 18 18 17 18 18 16 15 15 16 19 21 22 22 22 20 19 18 18 17 16 15 14 13 13 13 13 11 9 8 8 9 10 9 8 7 6 5 4 3 4 3 3 4 6 6 6 5 4 4
4 3 5 2 3 4 4 2 3 4 2 3 2 2 4 1 1 3 5 7 6 5 5 5 4 2 4 4 6 7 7 7 3 1 4 6 6 7 7 8 10 14 15 13 10 12 18 20 19 18 14 14 15 15 14 14 16 17 19 21 22 21 19 18 18 18 18 17 16 14 12 12 12 13 11 9 8 7 8 8 9 8 7 5 4 3 3 4 4 5 7 9 8 8 6 6 5
4 4 4 3 2 1 1 2 1 1 2 3 3 3 3 2 2 2 5 6 6 6 7 8 8 5 4 4 3 5 7 8 7 5 4 4 5 7 9 10 13 16 17 16 14 14 17 18 19 19 16 15 16 15 15 15 16 17 19 21 22 21 19 18 18 18 18 18 16 14 12 10 10 12 11 10 8 7 7 8 9 8 6 5 3 3 4 5 5 7 10 10 10 8 7 7 6
2 3 2 2 3 4 2 2 2 3 3 1 2 3 3 4 3 2 4 5 4 5 6 8 8 9 9 8 6 4 5 5 6 6 6 5 5 7 10 13 16 19 19 19 18 17 16 16 17 18 19 20 21 20 20 18 16 17 20 22 23 21 20 19 18 18 18 18 16 13 11 10 10 11 11 10 8 7 7 8 9 8 6 4 4 5 6 7 7 9 10 10 9 7 6 6 5
2 2 1 0 2 2 2 1 2 3 4 3 1 1 4 4 1 2 4 4 2 3 4 5 5 8 11 11 8 6 4 5 4 5 6 5 5 6 6 9 13 18 20 21 20 19 17 16 16 17 19 22 23 22 22 19 17 19 23 24 24 22 21 19 18 18 19 18 16 13 12 10 10 10 11 10 8 7 9 9 9 8 7 5 5 6 8 8 9 10 9 8 6 4 4 5 5
4 4 4 3 3 4 3 0 1 2 3 3 4 2 5 4 0 2 3 2 2 3 5 5 5 7 9 11 9 5 4 6 5 4 4 4 5 8 8 9 11 15 19 20 20 19 17 16 18 19 20 24 25 24 23 22 20 22 24 24 24 22 20 19 19 19 19 18 16 15 14 12 11 10 9 9 8 8 10 10 10 9 8 7 6 7 8 9 9 9 8 6 5 4 5 6 6
Wind_Direction
117 113 101 84 19 12 30 59 89 324 74 262 265 195 257 234 228 282 287 282 274 279 253 309 313 126 118 149 149 124 66 127 163 153 202 212 146 151 156 152 150 148 146 150 154 156 157 154 151 151 147 143 142 137 135 136 137 136 132 127 127 128 128 130 128 126 125 124 122 120 120 120 119 119 120 117 114 112 113 114 115 116 115 116 117 116 116 116 115 113 113 111 108 108 106 104 103
121 116 101 88 30 69 166 68 97 334 45 285 268 181 250 243 213 235 216 223 218 261 270 289 66 104 90 110 125 101 46 30 124 161 106 134 139 147 153 151 150 147 146 150 154 156 155 153 151 151 148 145 142 137 135 138 139 134 130 128 130 130 129 128 126 125 125 125 124 123 124 124 123 125 123 117 114 113 113 115 117 117 116 117 118 117 118 117 117 115 114 112 110 111 109 105 102
121 114 103 112 46 44 91 47 90 84 106 252 271 226 232 175 225 220 194 228 240 276 297 293 312 102 63 72 57 52 86 65 107 116 118 138 138 147 154 152 150 148 147 151 156 157 154 151 151 151 148 146 143 138 137 139 140 133 130 131 132 131 128 124 122 122 122 125 126 125 127 126 126 124 121 116 114 115 116 115 116 118 118 119 119 119 119 118 117 116 115 113 112 112 108 104 103
119 110 103 132 63 30 69 51 133 129 177 234 275 257 221 209 253 288 231 244 272 284 274 303 353 327 47 84 49 39 114 123 131 126 132 155 155 152 153 151 150 148 147 152 156 157 154 151 151 152 149 147 144 139 139 140 138 132 130 133 133 131 129 126 124 123 123 126 127 127 128 128 127 123 117 113 115 118 118 117 116 118 117 118 121 121 120 119 118 117 115 113 112 110 106 104 102
119 114 94 102 98 59 101 83 123 139 211 198 241 261 228 228 256 280 266 279 292 282 228 150 4 301 52 87 135 77 114 116 143 144 126 151 155 152 151 149 148 146 147 151 155 156 152 151 152 152 150 148 145 140 140 140 137 133 133 134 134 132 131 128 126 124 125 129 130 130 130 130 130 127 122 117 118 119 120 119 119 119 118 118 121 124 122 121 119 117 115 113 112 110 107 105 100
125 117 70 63 98 156 113 121 193 224 228 171 224 264 237 232 248 278 294 300 289 290 219 125 100 282 64 28 38 85 131 129 144 149 140 148 154 153 150 150 147 145 147 152 155 155 151 152 154 153 151 149 145 142 141 141 138 136 137 137 136 134 132 129 127 126 128 131 133 132 131 130 130 129 126 123 123 124 126 126 125 122 119 120 124 125 122 122 121 119 119 116 115 113 109 105 101
140 122 41 63 43 26 110 178 217 241 246 183 219 270 269 264 275 297 313 315 303 346 35 95 121 105 72 339 18 19 3 134 147 152 152 149 152 152 150 149 145 145 149 153 155 153 152 155 156 154 152 148 145 143 142 142 141 139 139 138 137 136 133 132 129 128 130 133 135 133 132 133 134 132 129 128 127 130 133 132 128 121 116 119 126 127 124 125 125 123 121 118 116 112 109 103 99
140 128 26 94 40 23 105 233 240 222 249 227 236 264 272 281 294 295 297 298 301 329 79 124 115 89 53 16 10 346 20 100 144 148 148 146 150 151 150 147 143 146 150 153 153 152 153 157 156 154 151 147 146 145 145 144 143 142 142 141 139 137 135 136 134 132 133 137 138 135 135 137 141 139 134 132 129 131 134 135 126 117 116 116 122 127 125 126 126 123 120 118 115 111 107 101 96
95 59 99 94 103 38 28 273 266 233 247 262 266 265 270 281 277 268 270 267 254 213 176 152 107 100 109 61 358 323 22 112 136 140 144 146 150 149 150 147 145 148 150 152 152 153 156 159 157 154 151 149 148 146 146 145 143 143 143 143 142 140 139 140 138 136 138 141 140 138 139 140 142 141 139 135 133 132 130 132 127 121 118 115 118 123 124 125 125 123 121 120 117 113 107 101 97
40 33 132 78 110 32 311 266 255 250 252 262 271 272 273 279 263 240 255 260 232 181 156 113 78 111 124 105 302 321 52 132 134 136 144 147 149 148 148 147 148 149 151 153 154 157 159 159 157 155 152 150 149 147 146 144 143 143 143 147 146 144 144 143 139 139 142 142 141 141 141 141 139 138 136 135 136 134 128 128 127 124 121 117 120 125 127 127 127 125 123 123 120 116 110 102 98
32 350 103 76 87 188 253 253 262 270 285 293 284 276 262 265 262 240 234 242 230 156 153 100 92 119 111 100 356 359 122 129 130 136 145 147 147 147 146 147 149 150 152 154 156 159 157 157 157 155 153 151 151 148 146 144 144 144 145 148 146 143 143 142 139 139 141 139 139 138 137 133 130 130 130 131 132 133 134 132 125 122 122 120 121 126 131 131 129 127 126 125 122 117 112 105 101
80 332 65 95 147 200 217 250 276 293 303 293 284 293 292 283 295 259 222 218 197 132 166 141 134 135 102 107 26 86 110 108 122 135 144 146 145 145 145 147 150 152 153 155 157 157 155 155 155 154 153 152 152 148 147 147 145 145 145 147 144 141 140 140 138 137 137 136 135 133 129 125 123 124 127 130 131 133 138 139 133 127 123 119 118 123 130 133 133 130 128 125 122 116 112 108 104
118 150 83 125 188 193 199 232 279 318 312 266 256 301 324 320 328 280 227 178 148 130 172 155 149 138 98 126 86 105 106 103 124 135 143 142 144 146 146 149 151 154 155 157 157 156 155 155 155 154 153 151 151 149 149 150 147 146 146 146 144 141 140 139 138 138 138 137 134 128 124 122 122 123 126 129 129 130 136 140 140 136 128 121 119 119 122 130 135 134 132 127 123 116 112 111 108
142 153 109 149 213 190 190 231 287 318 281 265 269 313 329 330 334 318 121 114 137 143 148 141 137 109 102 135 108 155 126 125 136 139 142 139 144 147 147 149 151 154 156 159 158 157 156 154 154 154 154 153 152 150 150 151 150 148 147 145 144 143 142 140 141 141 139 137 132 127 123 121 122 122 125 126 126 128 132 134 132 131 127 121 122 123 123 128 133 136 137 133 128 120 115 114 113
153 130 95 121 275 272 214 198 221 179 253 282 345 326 346 339 348 22 50 94 156 131 116 124 111 93 152 170 168 182 146 140 144 143 141 137 143 146 148 149 150 152 154 158 157 157 157 154 154 154 157 156 154 153 152 152 152 151 148 146 146 145 143 143 144 143 140 138 132 126 121 120 120 120 123 122 123 125 128 128 123 124 122 123 129 134 134 131 132 136 139 137 132 127 118 115 117
131 104 77 91 239 238 216 188 175 198 261 263 292 343 3 341 9 45 353 54 135 13 64 112 350 71 169 175 155 151 145 143 143 141 139 137 142 146 149 149 147 150 153 157 158 159 158 155 156 157 160 158 157 156 153 153 153 151 149 148 148 145 145 146 146 145 142 138 133 126 121 121 121 120 119 118 119 120 121 122 121 120 122 130 140 147 145 139 139 138 138 138 137 134 125 117 117
72 80 79 346 225 203 202 190 176 208 270 280 326 359 12 334 349 95 30 42 79 42 34 46 1 15 139 132 132 139 143 142 140 138 136 137 142 144 148 148 146 149 153 158 160 161 160 158 158 160 160 159 158 156 156 156 153 151 150 150 149 147 146 146 147 146 143 139 137 131 125 123 123 121 119 117 118 116 114 115 118 119 122 132 140 148 151 148 143 138 135 137 140 140 133 119 116
69 92 117 215 213 198 186 186 195 223 299 308 329 355 12 336 331 342 60 30 21 58 48 53 57 64 97 114 127 137 141 140 141 142 139 141 145 147 151 152 149 150 156 159 162 163 161 159 161 160 160 161 158 158 159 156 155 152 151 152 149 148 147 147 149 147 147 145 143 136 127 124 125 123 121 121 120 118 115 113 117 118 120 124 129 132 135 138 135 129 125 131 137 139 137 121 114
123 113 150 231 205 208 193 184 236 282 290 303 318 351 1 317 307 331 89 26 329 51 82 95 93 97 105 116 129 138 142 142 147 148 145 148 151 155 157 154 153 154 158 160 163 165 161 161 163 160 161 163 160 160 161 158 158 155 155 155 150 150 151 153 153 152 153 149 144 139 131 128 126 122 123 125 122 120 117 115 117 118 121 122 123 120 118 121 121 118 113 117 125 131 134 119 110
174 117 194 241 199 218 232 214 249 258 270 303 312 334 342 298 272 347 120 127 284 242 153 132 130 135 130 128 135 142 146 148 155 156 152 155 158 162 160 157 157 159 161 161 164 167 164 164 165 162 164 166 164 164 165 162 161 160 158 155 153 153 154 156 156 156 156 149 144 142 137 132 130 127 127 127 125 125 121 121 123 125 125 119 117 117 114 115 114 111 106 107 111 115 121 112 108
179 150 207 228 157 248 268 251 253 263 275 291 305 328 323 297 289 103 126 131 251 238 216 181 157 151 145 143 145 148 150 154 162 163 158 157 160 163 161 159 159 160 160 159 163 167 168 169 167 165 168 169 168 169 168 165 164 163 160 156 156 156 156 157 157 157 153 149 147 144 141 138 136 134 132 132 131 130 127 127 129 131 129 117 115 117 114 112 110 106 104 106 103 102 107 103 106
158 239 238 241 286 293 277 266 268 268 294 303 309 319 300 307 327 150 152 177 232 227 217 195 163 155 153 150 152 152 154 161 166 165 159 153 154 158 158 157 156 156 156 156 162 170 172 173 171 168 170 172 171 172 169 164 165 164 161 160 159 158 158 157 156 156 152 150 148 146 146 144 140 136 134 136 134 132 131 132 133 134 131 121 120 121 118 116 110 108 108 109 101 97 100 99 103
202 264 266 259 248 262 271 273 280 281 321 302 292 299 296 338 314 233 180 209 238 195 147 157 163 157 151 145 149 155 157 166 168 163 160 155 156 158 157 156 155 157 159 157 164 174 175 173 175 172 172 174 172 174 169 161 166 166 163 162 161 159 158 157 156 155 152 150 149 149 150 147 143 138 135 137 136 135 135 137 139 137 132 125 123 124 125 124 119 113 113 111 100 95 93 93 98
217 261 292 271 228 228 254 262 281 290 272 268 276 321 309 298 295 255 197 234 232 110 122 139 152 145 143 144 149 156 158 164 166 166 167 162 159 159 159 157 156 159 162 162 165 174 179 176 177 176 174 174 173 174 170 165 169 167 163 165 163 161 160 157 156 155 153 151 150 152 153 149 144 140 139 142 142 140 139 139 139 139 137 130 126 126 129 130 126 117 114 112 103 98 94 89 92
226 246 283 276 247 239 260 273 281 283 260 261 291 294 277 230 233 183 239 270 94 115 121 134 140 137 147 151 147 152 161 166 163 166 165 156 155 155 156 158 158 160 162 165 167 173 181 182 179 180 177 175 175 175 172 170 171 168 165 167 164 162 163 158 156 157 155 152 152 154 154 150 145 142 143 144 142 140 140 139 140 143 141 136 132 131 132 126 121 117 113 112 106 101 100 92 89
226 226 254 256 270 272 280 284 276 282 274 256 300 285 286 245 215 240 264 239 113 122 125 139 140 143 153 155 158 154 153 155 159 165 154 149 155 154 155 160 162 166 166 167 174 177 182 185 183 183 179 177 177 176 176 173 171 172 169 169 166 163 164 160 160 161 157 157 156 153 153 149 145 147 147 143 140 140 143 148 153 154 150 143 141 145 152 143 123 116 108 108 109 105 110 107 94
211 210 252 246 267 283 279 278 276 295 289 228 249 273 293 340 214 260 267 120 126 128 136 152 146 152 160 158 166 155 133 109 71 122 132 144 157 157 158 163 166 173 173 169 179 184 185 188 187 187 184 180 181 179 179 175 174 176 170 170 172 167 167 167 166 165 161 162 161 156 155 153 151 152 154 150 149 152 159 170 166 161 159 155 161 175 183 188 173 136 108 108 114 115 124 127 114
236 243 287 277 290 294 261 268 274 291 284 223 194 259 308 56 223 242 189 130 136 138 150 162 154 160 159 155 161 143 119 96 79 73 80 122 156 161 162 167 170 175 178 177 184 188 189 190 189 191 188 183 185 183 178 176 177 176 172 175 177 171 173 174 171 170 168 166 167 164 159 160 166 168 168 170 172 174 178 198 191 157 160 171 189 197 197 198 190 177 147 128 125 125 133 135 126
277 267 294 296 340 327 269 265 268 188 257 211 146 292 318 250 237 232 150 135 141 141 156 165 162 167 156 156 153 116 104 111 140 164 175 177 180 179 175 180 178 176 181 185 190 192 193 191 189 193 190 186 188 183 177 177 178 176 175 179 178 177 178 178 175 174 172 172 174 172 168 168 175 181 180 180 181 185 192 213 237 178 174 188 193 190 189 188 178 170 159 150 143 135 136 134 128
288 279 183 312 358 327 279 290 334 179 234 187 144 286 290 258 263 226 144 140 144 146 162 167 167 170 155 156 142 126 133 145 190 206 194 185 182 179 180 189 187 182 186 189 194 196 195 191 191 193 191 190 189 183 179 179 178 176 178 181 181 182 181 180 177 175 176 177 182 183 184 183 177 181 181 185 189 197 207 210 213 193 186 188 181 177 178 173 164 159 155 156 150 140 139 135 132
315 295 282 358 13 285 297 307 22 241 264 164 147 234 264 271 288 209 157 150 153 157 168 170 173 169 152 159 149 143 141 141 198 244 233 204 191 182 180 186 188 188 190 192 197 198 195 192 192 192 193 193 188 184 181 179 180 179 181 183 183 184 182 181 178 176 180 182 188 189 192 202 197 191 186 193 203 208 209 207 202 191 185 180 174 169 168 167 163 159 155 157 153 144 143 140 143
15 303 302 354 154 266 308 303 170 218 294 63 130 213 269 275 278 194 165 159 161 163 173 175 177 166 148 161 155 146 132 139 184 222 238 217 203 193 186 185 187 190 191 192 197 196 193 193 192 191 193 191 186 184 182 180 182 182 184 183 182 184 184 184 181 180 184 183 184 187 194 202 202 202 198 200 203 201 200 199 192 182 175 169 165 161 162 169 168 162 156 159 161 148 148 155 157
0 54 265 305 258 279 317 315 347 237 290 354 63 213 277 295 277 202 168 168 171 168 179 178 176 167 152 157 152 149 138 148 187 207 216 210 206 202 195 191 189 191 192 192 193 193 191 191 191 190 190 189 186 186 184 182 184 185 185 180 178 180 180 182 180 181 184 180 181 185 191 195 195 199 199 196 194 195 195 189 182 174 167 160 161 162 163 168 169 167 157 155 166 156 158 163 153
325 16 257 262 251 230 301 302 331 17 35 351 351 239 260 286 285 207 181 178 182 180 188 183 173 164 151 154 160 162 155 165 193 201 198 201 203 200 199 198 196 194 194 193 192 191 190 189 189 188 188 187 187 186 183 181 183 184 183 176 170 169 170 174 173 177 178 175 178 181 185 187 189 189 188 189 186 192 192 182 177 171 166 162 168 172 166 164 165 170 161 152 155 159 163 158 139
195 247 119 288 289 224 225 264 305 4 18 349 346 301 271 281 190 194 193 182 190 197 194 184 170 157 153 162 171 171 169 182 192 187 187 195 197 196 196 198 198 196 195 195 193 192 191 188 186 186 188 189 188 186 180 178 181 181 178 170 165 165 166 169 170 170 167 168 169 172 177 177 178 175 174 179 183 189 186 180 178 170 166 167 174 177 169 166 161 165 169 158 145 149 160 149 135
151 172 170 215 276 255 207 238 276 343 359 316 270 238 264 279 229 199 203 192 199 206 193 180 170 158 159 169 179 175 181 196 189 177 183 192 193 193 194 194 195 196 195 195 193 193 191 187 184 183 187 189 186 181 175 174 175 174 172 166 164 165 165 165 162 157 153 156 159 162 166 162 162 163 164 172 181 185 185 186 182 169 165 167 174 180 172 166 158 160 173 165 149 148 151 143 142
130 178 209 221 249 265 208 236 265 220 351 286 253 229 256 268 246 206 199 199 206 206 194 188 180 171 172 179 185 180 185 197 185 179 183 188 191 192 193 190 190 192 194 196 195 192 190 187 186 184 185 188 185 179 173 173 172 169 168 165 164 165 165 163 154 149 149 150 152 155 155 151 154 157 161 169 175 179 183 191 186 170 165 166 172 179 173 169 163 162 168 166 160 156 149 143 145
147 228 272 270 243 261 250 236 259 192 164 267 271 268 271 264 250 212 187 192 209 206 195 194 188 177 178 184 183 177 177 182 183 185 182 184 190 194 194 189 187 189 192 196 195 190 187 188 190 189 187 186 187 183 178 177 177 173 169 166 165 165 165 160 149 145 149 149 149 150 149 149 152 153 157 161 165 172 176 181 182 172 166 166 172 178 179 179 178 178 169 164 168 163 158 154 147
167 182 265 272 254 286 291 266 279 127 155 264 292 290 273 269 259 212 185 190 205 206 197 194 187 176 180 187 183 174 173 181 191 190 179 183 191 194 194 191 188 190 193 197 195 188 185 187 192 194 190 186 187 188 185 183 181 177 172 167 164 163 163 157 148 144 146 145 145 145 146 148 148 148 150 153 158 167 172 173 174 174 171 171 178 181 183 183 185 190 176 169 171 164 162 163 157
176 180 227 263 265 327 285 292 324 319 225 258 278 292 276 285 298 239 202 200 210 209 199 194 189 185 185 183 177 177 183 188 192 188 177 185 193 195 194 191 188 189 192 195 192 187 185 189 196 195 190 187 187 188 187 185 179 175 172 169 165 162 159 153 146 143 142 141 140 139 142 143 143 144 146 150 158 161 168 174 175 176 177 178 184 188 187 186 190 190 179 181 180 168 162 169 170
249 212 213 240 242 214 229 278 333 323 314 251 260 324 298 309 322 284 245 225 234 214 180 176 190 191 182 170 172 186 191 189 187 185 179 185 194 196 194 191 188 187 190 193 191 187 188 194 199 197 190 187 187 186 185 181 175 170 167 165 164 160 155 153 148 146 145 143 140 137 139 140 140 141 142 150 160 160 162 171 178 179 180 181 187 194 196 194 194 192 184 186 189 182 173 177 183
286 234 211 211 218 229 239 278 14 359 338 287 73 16 299 310 312 291 305 248 240 209 168 177 182 177 169 171 181 191 193 189 189 190 184 188 193 193 192 191 186 185 190 192 191 190 193 196 198 198 192 188 187 185 181 180 176 173 170 166 164 158 154 156 154 151 150 148 143 140 139 138 138 138 138 143 152 159 159 161 168 176 179 179 182 193 200 197 195 195 189 188 193 195 188 185 190
282 239 202 203 212 230 245 232 97 99 268 283 53 100 261 310 326 296 309 267 243 217 183 183 174 171 174 181 185 188 189 187 191 193 189 192 192 187 193 193 184 182 188 191 191 192 194 194 193 195 195 189 186 182 181 181 178 176 176 172 168 164 159 160 162 157 153 150 147 146 144 141 142 144 142 140 140 148 155 157 162 169 174 175 178 188 194 195 195 194 191 189 191 197 198 195 197
251 229 177 180 202 221 230 181 159 228 261 313 15 116 218 295 294 281 293 228 246 225 194 184 178 180 181 184 185 188 188 186 189 188 188 195 193 191 196 191 179 182 188 189 189 191 193 192 190 191 192 188 183 181 180 180 180 178 177 173 170 169 166 165 168 167 161 156 154 154 153 152 153 155 155 148 139 138 149 158 162 167 170 172 177 185 190 190 189 188 187 188 188 195 205 207 205
245 215 163 165 184 197 192 153 183 249 352 313 304 124 188 274 275 301 10 125 222 219 202 192 186 185 185 185 187 190 190 187 188 186 188 195 192 193 194 181 172 181 188 188 188 190 192 192 190 184 184 183 180 180 179 179 182 180 176 173 170 172 174 171 172 172 167 162 160 161 165 166 164 163 162 156 146 139 149 156 157 156 159 167 174 180 187 187 185 187 189 189 189 192 202 212 214
228 161 137 108 104 126 130 136 160 73 35 263 258 189 194 275 286 327 29 121 233 225 214 201 191 190 189 187 186 189 187 183 187 190 195 196 186 184 180 168 167 173 181 186 187 190 192 194 194 182 175 178 179 179 179 179 183 182 177 175 174 174 174 170 169 169 166 162 160 163 169 171 167 162 159 156 151 148 151 154 149 142 143 159 170 173 180 184 186 191 196 196 196 196 195 201 214
149 109 99 58 41 50 65 81 101 90 271 258 243 195 182 273 285 265 203 219 225 223 218 199 196 195 192 190 185 181 181 179 183 189 192 186 176 169 159 160 165 164 169 178 184 188 190 193 197 190 175 176 180 180 181 181 181 180 179 179 178 175 170 168 166 164 163 161 159 161 165 166 161 156 153 151 153 158 159 157 149 141 137 154 169 173 177 179 182 190 199 202 203 205 197 192 198
119 75 85 74 350 19 37 2 49 130 252 263 249 174 152 200 258 249 253 258 242 231 217 198 195 194 190 189 179 165 167 168 174 185 177 168 167 162 153 152 154 155 161 169 178 185 187 190 196 195 184 179 181 181 183 183 178 177 181 181 179 175 171 171 168 163 163 162 160 161 162 163 162 158 156 155 159 169 173 169 161 154 146 148 163 172 174 176 183 189 198 203 204 206 199 190 190
136 106 95 103 325 23 26 300 244 209 250 257 220 132 152 217 241 249 281 282 262 243 233 217 205 198 188 173 162 149 143 145 132 84 62 35 145 143 156 155 149 151 158 165 172 179 182 187 194 196 191 185 183 183 184 185 181 179 182 183 179 176 174 174 170 166 166 166 164 164 163 164 168 168 167 165 164 173 179 177 171 160 141 128 141 151 158 168 183 188 192 197 200 205 202 194 188
156 151 142 145 127 78 284 265 255 256 259 269 24 133 215 269 256 250 285 290 274 252 242 239 219 196 177 145 137 131 122 120 106 92 97 226 268 115 168 182 163 152 155 162 168 171 174 180 190 195 193 189 185 183 183 184 183 182 185 184 180 177 175 174 171 168 169 172 173 172 170 170 175 179 177 171 162 166 176 176 170 155 133 113 124 136 139 145 157 176 182 186 190 199 202 195 187
171 166 139 145 155 148 204 220 202 249 260 294 331 148 180 217 246 251 274 295 299 269 220 186 125 142 149 135 129 130 130 127 130 142 158 181 145 121 163 186 176 162 159 161 163 164 165 172 185 192 191 189 187 183 181 183 183 183 184 184 182 180 178 176 174 172 174 179 182 182 183 184 187 186 182 174 160 161 171 171 164 152 132 116 120 128 127 121 116 142 160 165 168 169 175 179 176
210 137 109 152 183 154 162 189 172 187 220 288 300 220 203 210 263 291 310 333 351 24 86 109 112 131 137 133 132 130 124 124 148 166 160 136 123 134 156 176 181 164 144 125 136 152 158 165 180 189 189 185 183 180 179 181 182 182 185 185 184 183 181 179 177 177 181 186 188 188 190 194 194 191 187 179 163 160 169 169 163 154 140 126 125 129 128 120 109 120 148 153 151 149 158 168 167
176 132 167 217 171 129 120 190 100 82 144 255 305 283 296 326 308 313 1 18 29 53 60 85 115 138 140 141 138 119 104 105 195 187 150 130 129 140 150 173 177 147 127 123 127 146 156 161 175 189 189 178 173 176 178 180 184 185 187 188 187 186 186 185 183 182 185 189 188 187 188 190 190 189 190 185 170 162 170 173 168 159 151 137 128 133 135 129 120 126 145 146 140 136 139 136 137
125 182 203 186 81 92 111 155 10 49 174 266 342 293 299 10 231 307 28 31 29 52 62 65 61 100 145 141 127 118 126 142 149 101 124 121 127 144 149 168 164 140 145 172 167 147 152 158 170 183 176 152 149 161 171 180 188 191 192 192 191 191 190 189 188 186 187 187 183 183 184 185 186 186 187 185 178 169 170 179 177 165 156 147 134 136 142 135 131 142 145 140 133 131 124 112 111
138 177 170 108 119 174 98 135 150 123 202 286 328 303 272 193 217 326 30 23 19 32 43 53 45 36 33 19 56 104 119 131 130 122 125 116 124 148 156 164 160 149 159 172 160 145 147 151 162 171 163 147 148 159 170 182 191 195 196 194 191 192 192 190 189 187 188 187 184 184 186 188 188 186 184 182 182 178 174 181 180 170 160 153 144 147 153 146 145 153 150 142 137 134 128 117 111
41 115 93 43 135 161 161 146 158 162 172 247 312 321 278 223 232 334 347 348 25 49 49 58 57 55 52 29 10 43 86 102 117 122 119 110 120 149 162 163 160 159 161 161 156 153 148 145 153 162 164 162 166 174 180 183 188 193 195 192 191 191 190 189 188 188 190 189 188 189 192 194 190 185 183 182 184 187 182 179 177 174 168 159 152 151 156 157 157 157 153 146 142 141 137 127 117
88 127 185 310 89 128 160 99 84 130 147 172 171 286 271 249 262 338 326 329 22 87 78 72 67 72 75 64 37 17 39 63 72 98 109 112 110 112 135 151 150 151 153 156 159 155 146 145 152 160 166 167 170 179 184 183 186 192 193 189 189 189 188 187 186 188 190 190 190 193 195 196 192 183 181 182 186 190 184 178 176 176 172 168 162 155 158 164 163 159 156 153 150 157 168 157 145
159 162 185 177 131 125 134 267 299 107 122 161 158 204 268 267 306 341 336 351 41 96 101 88 75 81 88 88 82 61 47 63 58 63 91 110 115 118 133 143 136 138 146 152 151 146 146 156 164 170 174 173 173 176 180 184 187 189 190 187 186 187 186 186 186 187 190 190 191 195 196 197 194 186 178 178 187 193 188 183 180 180 178 179 179 167 163 170 172 167 164 163 162 169 177 171 162